Wind_Speed
33 31 27 25 23 22 21 18 17 15 16 17 17 17 15 14 13 13 12 11 10 7 6 4 2 2 3 6 8 10 10 12 13 14 13 13 12 12 12 13 14 15 17
35 30 28 25 24 24 22 21 18 16 15 16 16 16 15 15 14 13 11 10 8 8 5 4 5 6 8 10 12 14 14 15 17 18 17 17 16 16 16 15 15 18 19
35 32 29 26 27 23 24 22 19 16 15 16 17 17 17 15 13 13 11 11 10 9 8 9 9 11 13 14 17 19 18 19 18 18 18 20 20 19 19 19 18 19 20
34 30 30 28 26 26 25 23 19 15 15 16 17 18 17 16 14 11 12 12 11 11 12 13 13 15 16 19 20 23 23 23 21 21 22 22 22 21 21 21 20 22 24
32 32 32 28 27 27 26 21 19 15 15 17 18 19 18 16 15 16 14 12 13 17 15 16 20 18 18 19 18 20 20 22 23 23 23 24 23 22 22 22 24 25 27
36 37 37 31 26 27 24 21 18 15 14 16 17 18 18 18 17 17 16 16 15 16 21 26 23 21 21 20 20 22 18 19 19 18 19 20 21 22 23 24 27 29 30
47 47 38 36 28 27 24 19 17 16 14 14 19 18 19 19 18 19 18 17 17 16 17 23 20 21 19 20 21 16 17 18 20 19 19 20 20 21 23 27 32 32 32
47 42 41 37 28 30 27 22 20 17 17 16 15 16 19 21 21 21 20 20 20 19 20 18 16 19 22 22 15 16 19 22 20 19 21 21 23 24 27 31 33 34 35
51 48 44 35 35 32 30 24 23 18 23 19 17 16 12 15 16 20 22 23 23 24 25 22 18 20 20 22 22 17 21 24 23 24 25 24 25 25 26 29 33 35 37
48 44 41 37 39 34 34 29 27 25 22 25 20 19 18 18 14 17 23 23 23 25 25 25 28 33 28 25 23 27 23 24 26 28 29 32 31 30 33 34 33 34 36
48 48 47 42 41 39 38 34 33 31 26 28 26 22 21 21 23 27 28 28 31 29 29 29 30 35 35 32 29 29 31 31 29 30 29 31 33 35 39 38 39 40 39
40 41 48 45 44 42 40 38 35 34 31 34 30 27 24 24 24 25 27 28 30 34 39 36 38 41 45 46 33 33 37 33 32 32 34 38 36 36 38 37 41 42 40
35 46 50 47 48 47 43 41 39 37 34 38 37 33 30 30 29 31 32 33 37 39 43 44 43 45 47 54 47 38 31 34 39 37 36 40 40 39 43 43 43 42 41
32 37 45 47 43 43 43 46 42 38 39 38 39 39 34 35 38 38 38 39 43 47 50 50 52 53 58 49 41 36 39 35 41 38 41 37 42 46 47 43 42 42 42
26 29 30 34 42 40 43 39 40 42 43 42 43 43 42 42 43 45 43 45 48 53 58 62 63 61 55 44 38 30 32 33 39 37 43 42 42 47 49 46 43 42 42
22 24 28 30 34 38 39 42 41 39 42 42 44 43 44 43 43 46 46 48 50 56 66 66 70 63 55 37 31 38 30 40 41 43 41 41 47 48 48 47 45 45 44
19 22 22 25 27 28 31 36 35 35 37 39 40 41 43 43 46 45 45 48 52 58 62 40 27 21 22 32 35 35 34 40 45 43 40 44 50 51 50 47 47 46 44
22 23 25 27 28 29 31 34 35 34 35 39 39 40 44 43 44 44 47 50 55 39 32 28 29 32 34 37 34 38 40 40 42 43 50 53 53 53 48 48 47 44 43
26 28 30 30 30 32 35 37 39 38 36 37 41 43 51 53 46 47 48 51 47 39 33 41 39 37 36 40 40 40 42 46 45 50 53 57 51 50 49 48 45 44 44
33 34 33 33 34 35 37 38 37 40 40 39 38 40 49 54 55 45 47 45 45 44 43 41 39 38 42 41 40 45 47 44 48 56 57 51 50 52 49 47 46 44 45
33 35 36 36 37 39 40 41 40 42 46 46 43 41 37 35 36 39 43 43 39 40 45 46 43 44 43 47 39 46 46 54 53 50 49 51 53 55 48 46 46 47 50
36 37 37 37 39 41 43 44 43 44 46 47 49 47 44 41 42 41 42 39 45 49 50 50 44 53 45 40 50 52 52 48 48 48 51 54 56 53 48 47 54 56 52
35 32 33 34 35 37 39 42 45 47 49 50 53 55 54 47 45 50 51 53 53 53 50 53 52 46 42 47 51 50 48 50 49 50 53 58 56 52 49 55 57 53 49
34 34 35 35 35 34 35 37 39 41 44 47 48 49 50 51 54 55 55 53 48 55 55 50 44 37 46 52 50 48 49 50 51 51 51 55 52 55 56 57 54 51 46
41 41 41 41 40 35 32 34 38 42 43 44 45 47 46 48 49 50 53 50 54 50 50 46 45 46 51 51 49 50 51 53 54 53 50 54 57 59 57 56 50 49 44
50 49 46 44 43 38 34 34 36 41 44 45 46 47 48 50 50 51 55 48 53 56 47 46 49 51 51 51 51 52 53 54 53 54 55 59 57 55 55 50 49 44 45
Wind_Direction
177 184 185 190 188 189 179 178 178 182 187 188 183 185 182 183 177 179 172 168 161 159 161 159 189 267 301 298 291 288 287 288 286 282 283 283 282 283 290 302 309 310 307
174 186 191 189 189 189 182 182 181 182 187 191 188 186 184 183 180 177 173 172 179 204 206 240 259 279 280 288 291 291 296 296 289 285 283 282 281 281 288 294 299 305 306
172 186 189 189 192 190 185 187 183 176 197 194 193 193 193 193 196 199 196 200 205 222 234 252 267 280 285 292 292 292 294 292 295 299 292 284 278 278 284 292 297 304 307
175 188 189 189 194 190 186 187 183 181 196 203 202 202 206 209 214 216 227 228 230 245 259 266 277 278 289 297 304 296 291 292 296 296 291 286 278 278 283 289 295 300 300
179 192 191 188 196 191 191 181 191 187 197 208 209 212 217 224 226 231 234 245 261 261 265 280 282 288 295 303 310 319 307 301 296 296 292 291 286 280 280 286 290 296 296
188 192 188 187 194 191 187 184 192 193 206 214 220 223 226 233 236 239 243 248 260 276 293 283 279 291 299 304 310 315 316 307 304 306 312 305 294 285 284 285 292 292 291
193 195 187 183 193 192 189 188 196 201 212 221 225 232 239 244 246 246 247 253 263 273 290 284 277 281 292 302 303 305 321 324 316 309 308 304 301 293 285 286 288 289 287
196 196 203 191 189 197 198 193 203 212 221 231 235 237 246 252 253 255 259 258 260 274 286 287 280 290 300 305 300 301 310 310 311 305 307 296 294 292 287 289 291 289 284
199 200 206 196 201 204 209 206 216 224 228 231 237 233 238 251 274 260 254 259 265 276 279 288 289 285 290 293 298 300 294 302 302 302 308 308 299 290 287 290 291 289 286
203 200 199 200 212 210 216 217 224 229 241 237 231 235 235 221 229 244 271 256 263 270 274 289 290 292 277 279 282 290 295 293 292 296 302 309 310 309 299 296 299 294 287
199 201 205 204 212 214 221 224 232 239 250 239 247 243 248 245 244 246 255 268 279 278 273 275 279 286 282 271 271 277 285 289 288 290 297 307 312 317 311 302 300 299 297
208 211 213 213 216 218 224 230 235 243 247 242 242 248 252 256 259 260 264 268 276 281 282 282 283 280 283 282 271 274 278 281 284 287 291 299 300 308 307 296 293 294 290
221 221 220 221 221 225 227 234 236 239 243 243 246 244 252 258 262 267 271 272 276 277 280 279 281 284 284 280 277 266 278 285 283 286 290 294 290 298 310 300 294 291 288
227 229 230 230 233 236 238 241 246 243 247 251 245 251 254 261 264 267 271 277 281 283 282 283 281 281 284 283 275 268 269 283 277 276 284 292 283 294 302 296 292 288 287
223 226 230 238 242 243 244 247 248 251 252 254 251 252 257 261 267 272 275 278 284 286 288 287 289 286 280 279 266 271 278 268 279 278 284 284 295 296 301 297 291 288 286
216 222 226 233 237 239 242 244 248 250 252 254 256 258 260 263 265 268 273 279 283 286 292 287 285 284 277 258 269 272 283 279 273 282 285 275 294 296 296 294 291 288 286
217 222 226 229 235 238 240 244 248 252 255 259 262 263 264 265 266 270 274 278 282 283 289 287 285 292 284 274 284 274 277 278 279 288 275 281 292 296 293 291 288 286 286
228 230 233 236 237 241 243 245 248 251 259 264 266 269 269 267 270 272 274 281 280 282 287 293 287 283 275 286 274 279 284 288 281 291 285 286 289 291 289 292 289 289 288
241 240 243 248 251 250 249 253 255 257 267 273 266 267 269 264 266 272 278 283 282 275 280 286 287 284 276 286 279 281 283 289 289 283 285 286 290 290 294 293 292 291 291
248 250 251 252 254 255 255 264 265 262 265 273 265 274 276 275 270 265 277 276 279 268 273 286 286 277 281 285 282 279 291 278 278 284 287 291 290 293 295 293 293 291 294
256 255 254 256 258 261 263 264 265 264 266 270 268 273 277 274 268 270 278 277 274 271 274 279 280 275 283 276 272 281 274 278 285 288 287 286 291 294 292 293 292 292 293
252 251 253 257 261 265 266 265 263 264 263 265 269 268 270 270 272 275 277 273 270 272 276 280 276 272 270 266 280 282 282 283 288 283 283 287 295 293 293 293 294 296 297
245 245 250 255 261 268 271 271 269 266 265 264 263 265 267 269 269 269 275 268 268 273 273 275 274 261 262 280 283 287 286 288 287 281 282 289 292 291 293 296 295 296 296
239 245 251 256 262 267 270 271 268 267 268 269 271 270 269 266 267 267 270 269 269 273 274 269 264 270 283 287 286 286 284 281 278 277 281 286 288 293 297 296 296 296 296
245 248 249 254 258 264 270 273 269 267 268 271 272 271 270 268 267 267 268 271 271 271 276 265 269 283 284 284 282 281 277 275 277 280 286 292 295 297 297 297 298 296 295
248 251 251 253 259 261 264 265 267 269 268 268 268 265 263 264 266 266 269 264 269 269 260 269 284 283 281 278 276 276 274 275 284 290 293 295 294 296 294 294 295 296 296
Height
3117 3126 3130 3134 3138 3141 3145 3149 3151 3154 3156 3158 3159 3162 3163 3164 3166 3167 3169 3169 3171 3172 3173 3173 3173 3175 3175 3177 3177 3177 3176 3176 3175 3175 3175 3175 3175 3175 3174 3173 3172 3172 3172
3118 3125 3131 3133 3137 3141 3144 3148 3150 3153 3155 3157 3159 3161 3163 3164 3165 3167 3168 3169 3170 3172 3171 3172 3173 3173 3174 3174 3174 3175 3174 3174 3174 3173 3173 3173 3172 3172 3171 3170 3170 3170 3170
3116 3123 3129 3132 3136 3139 3142 3146 3149 3150 3155 3156 3158 3160 3163 3164 3165 3166 3168 3169 3170 3170 3171 3171 3172 3171 3172 3171 3171 3171 3170 3170 3170 3169 3168 3168 3168 3167 3168 3168 3167 3167 3166
3113 3121 3126 3130 3134 3137 3141 3144 3147 3149 3153 3155 3158 3160 3162 3163 3165 3165 3166 3167 3168 3168 3169 3170 3170 3169 3168 3168 3167 3166 3166 3165 3165 3164 3164 3163 3164 3164 3164 3163 3163 3162 3162
3110 3118 3124 3127 3132 3136 3140 3142 3146 3147 3151 3153 3156 3158 3160 3162 3163 3164 3165 3164 3164 3165 3166 3166 3167 3166 3165 3164 3164 3163 3161 3160 3160 3159 3159 3158 3158 3158 3157 3157 3157 3157 3157
3108 3115 3117 3122 3130 3135 3138 3141 3144 3146 3149 3152 3154 3156 3158 3159 3161 3161 3162 3162 3163 3163 3160 3159 3163 3162 3161 3161 3160 3160 3157 3156 3156 3154 3154 3153 3152 3152 3152 3152 3152 3151 3150
3104 3111 3117 3121 3127 3133 3137 3139 3142 3144 3147 3149 3151 3153 3155 3156 3157 3159 3160 3159 3159 3159 3159 3157 3155 3157 3158 3157 3156 3155 3154 3154 3152 3151 3150 3149 3147 3146 3146 3146 3146 3144 3144
3103 3109 3115 3118 3123 3130 3133 3136 3139 3142 3144 3146 3148 3150 3151 3153 3153 3155 3155 3156 3155 3154 3155 3154 3153 3151 3149 3151 3152 3152 3150 3149 3147 3147 3145 3144 3143 3141 3141 3140 3139 3137 3136
3100 3106 3111 3116 3121 3126 3130 3133 3135 3138 3141 3143 3145 3146 3148 3150 3150 3148 3151 3151 3151 3152 3152 3151 3150 3149 3149 3145 3145 3146 3147 3145 3143 3141 3138 3137 3137 3136 3135 3133 3132 3130 3129
3097 3102 3107 3113 3117 3122 3125 3128 3131 3134 3136 3138 3140 3142 3143 3144 3146 3145 3144 3146 3147 3147 3147 3146 3145 3145 3144 3144 3142 3140 3141 3141 3138 3136 3134 3131 3129 3126 3125 3125 3124 3122 3120
3093 3098 3102 3108 3113 3117 3121 3123 3126 3129 3132 3134 3134 3136 3138 3139 3140 3142 3142 3140 3139 3140 3140 3141 3141 3140 3137 3137 3137 3136 3135 3135 3132 3130 3128 3127 3124 3120 3118 3114 3113 3111 3108
3089 3093 3097 3103 3108 3112 3115 3118 3121 3123 3126 3127 3129 3130 3131 3133 3134 3135 3135 3136 3135 3132 3129 3134 3134 3134 3132 3129 3129 3129 3128 3128 3125 3123 3122 3119 3117 3115 3111 3108 3106 3102 3101
3084 3089 3093 3097 3101 3105 3109 3112 3114 3116 3118 3121 3122 3122 3124 3126 3127 3128 3127 3128 3127 3128 3125 3125 3125 3123 3122 3120 3118 3119 3119 3117 3116 3115 3114 3111 3108 3106 3103 3100 3098 3095 3091
3081 3086 3088 3092 3096 3099 3103 3106 3107 3108 3111 3113 3115 3116 3117 3120 3119 3119 3120 3121 3118 3116 3115 3115 3116 3115 3112 3109 3107 3108 3107 3109 3107 3105 3103 3102 3100 3097 3094 3091 3088 3085 3082
3074 3079 3082 3085 3089 3093 3096 3098 3100 3102 3103 3104 3107 3109 3109 3111 3112 3112 3113 3112 3111 3106 3101 3099 3098 3101 3100 3096 3096 3097 3096 3097 3099 3096 3094 3092 3091 3087 3083 3080 3077 3075 3072
3069 3072 3076 3079 3082 3085 3088 3090 3092 3094 3095 3096 3098 3100 3101 3103 3103 3102 3103 3102 3100 3097 3089 3091 3083 3083 3081 3084 3086 3085 3087 3088 3087 3086 3083 3082 3079 3076 3072 3069 3066 3063 3060
3066 3067 3070 3073 3075 3077 3080 3081 3083 3087 3087 3089 3091 3091 3091 3093 3092 3092 3092 3092 3089 3087 3078 3076 3075 3073 3074 3076 3076 3076 3077 3078 3076 3074 3071 3072 3068 3064 3061 3058 3055 3052 3049
3062 3064 3066 3067 3069 3070 3072 3072 3073 3075 3077 3078 3080 3080 3080 3082 3081 3082 3082 3081 3078 3076 3074 3069 3067 3067 3067 3066 3065 3068 3067 3066 3064 3062 3059 3058 3056 3051 3048 3046 3042 3039 3037
3057 3059 3060 3061 3063 3064 3065 3066 3066 3067 3068 3068 3069 3070 3069 3070 3069 3071 3071 3070 3068 3068 3066 3061 3058 3058 3057 3058 3056 3056 3056 3054 3052 3049 3046 3044 3042 3038 3036 3033 3030 3028 3025
3052 3052 3054 3055 3057 3058 3058 3058 3058 3058 3059 3059 3060 3060 3059 3055 3055 3061 3060 3060 3058 3057 3057 3054 3051 3051 3049 3048 3046 3045 3044 3042 3040 3037 3032 3029 3028 3025 3024 3020 3018 3015 3012
3044 3046 3046 3047 3048 3048 3049 3049 3051 3051 3051 3051 3050 3049 3050 3049 3049 3050 3050 3049 3048 3048 3047 3045 3042 3038 3039 3036 3035 3034 3031 3030 3027 3024 3020 3019 3016 3012 3011 3008 3004 3003 3001
3036 3037 3038 3039 3039 3039 3040 3041 3041 3041 3041 3040 3040 3040 3040 3041 3041 3039 3039 3039 3039 3037 3035 3033 3030 3026 3027 3024 3025 3022 3018 3016 3013 3012 3008 3004 3003 2999 2998 2994 2990 2985 2983
3027 3028 3030 3031 3031 3030 3031 3032 3032 3031 3029 3029 3030 3029 3029 3031 3030 3030 3030 3027 3026 3024 3022 3020 3015 3014 3013 3011 3010 3007 3006 3003 3001 2999 2995 2990 2988 2985 2984 2979 2973 2970 2968
3018 3019 3021 3021 3021 3021 3021 3021 3021 3020 3019 3018 3018 3018 3018 3019 3019 3019 3018 3015 3014 3013 3007 3002 3003 3000 3001 2998 2997 2995 2994 2990 2987 2985 2980 2976 2973 2972 2969 2963 2960 2956 2953
3009 3009 3010 3010 3011 3011 3011 3012 3011 3010 3009 3008 3007 3007 3007 3007 3007 3007 3006 3004 3002 2998 2994 2993 2990 2990 2988 2984 2984 2982 2980 2976 2973 2970 2966 2960 2959 2955 2952 2947 2945 2941 2940
2998 2999 3000 3001 3001 3001 3000 3000 3000 2999 2999 2998 2997 2996 2996 2995 2994 2993 2992 2990 2989 2986 2984 2981 2981 2978 2976 2974 2971 2968 2965 2961 2959 2955 2953 2948 2943 2941 2938 2936 2931 2928 2924